Terug naar catalogus

CZ-6A DEB

ActiefSSO
NORAD 54949·DEBRIS·🇨🇳 China

Gelanceerd Nov 11, 2022 vanaf Taiyuan Satellite Launch Center

Loading…

Volgende Passages (komende 24 uur)

TLE

VersSource: Space-Track

Epoch: Sep 13, 2026, 14:47 UTC

1 54949U 22151SN  26256.61643219  .00002813  00000-0  68141-3 0  9992
2 54949  98.6053 302.9587 0091870  73.6976 287.4298 14.51272712201905

Volg CZ-6A DEB in realtime met AllMySat

Download on the App Store